Flag for U.S.A. Weather past 2 weeks in Clarksville, Tennessee, U.S.A.

Now
67 °F

Clear.


Feels Like: 67 °F
Forecast: 68 / 85 °F
Wind: 3 mph from Southeast

Location: Outlaw Field

Current Time: Aug 29, 2015 at 1:14:47 AM

Latest Report: Aug 28, 2015 at 11:52 PM


Visibility: 10 mi

Pressure: 30.06 "Hg

Humidity: 87%

Dew point: 63 °F

Location of ClarksvilleLocation

Historic Weather in Clarksville — Graph

°F

Clarksville temperature yesterday

Maximum temperature yesterday: 87 °F (at 4:52 PM)
Minimum temperature yesterday: 55 °F (at 5:52 AM)
Average temperature yesterday: 72 °F

Past Weeks' High & Low Weather Summary

 TemperatureHumidityPressure
High88 °F (Aug 23, 1:52 PM)100% (Aug 16, 4:52 AM)30.18 "Hg (Aug 16, 4:52 AM)
Low51 °F (Aug 25, 5:52 AM)36% (Aug 25, 12:52 PM)29.80 "Hg (Aug 19, 6:52 PM)
Average72 °F74%30.04 "Hg
* Reported Aug 13 11:52 PM — Aug 28 11:52 PM, Clarksville, Weather by CustomWeather, © 2015

Note: Actual official high and low records may vary slightly from our data, if they occured in-between our weather recording intervals... More about our weather records

Advertising

Clarksville weather history for previous 24 hours

 ConditionsComfort  
Time TempWeatherWind HumidityBarometerVisibility
11:52 PM
Fri, Aug 28
67 °FClear.3 mph87%30.06 "Hg10 mi
10:52 PM68 °FClear.No wind84%30.07 "Hg10 mi
9:52 PM69 °FClear.3 mph81%30.06 "Hg10 mi
8:52 PM70 °FLight rain. Clear.No wind81%30.05 "Hg10 mi
7:52 PM75 °FClear.No wind69%30.03 "Hg10 mi
6:52 PM83 °FSunny.No wind51%30.02 "Hg10 mi
5:52 PM86 °FSunny.5 mph43%30.02 "Hg10 mi
4:52 PM87 °FPassing clouds.7 mph42%30.02 "Hg10 mi
3:52 PM86 °FSunny.7 mph45%30.03 "Hg10 mi
2:52 PM86 °FPassing clouds.6 mph46%30.05 "Hg10 mi
1:52 PM84 °FScattered clouds.7 mph49%30.07 "Hg10 mi
12:52 PM83 °FLight rain. Broken clouds.3 mph51%30.09 "Hg10 mi
11:52 AM83 °FSunny.3 mph50%30.11 "Hg10 mi
10:52 AM79 °FSunny.5 mph54%30.12 "Hg10 mi
9:52 AM74 °FSunny.5 mph62%30.13 "Hg10 mi
8:52 AM68 °FPassing clouds.6 mph73%30.12 "Hg10 mi
7:52 AM63 °FSunny.3 mph84%30.13 "Hg8 mi
6:52 AM56 °FFog.No wind97%30.11 "Hg5 mi
5:52 AM55 °FClear.No wind96%30.10 "Hg9 mi
4:52 AM56 °FClear.No wind93%30.09 "Hg10 mi
3:52 AM59 °FClear.No wind87%30.08 "Hg10 mi
2:52 AM61 °FClear.5 mph81%30.07 "Hg10 mi
1:52 AM60 °FClear.6 mph83%30.07 "Hg10 mi
Weather by CustomWeather, © 2015

See weather overviewHow to use our weather pages